Weather History for Scilly, United Kingdom

Change the Weather History Date:

Tuesday, October 2, 2012

  Actual Average Record
Temperature  
Mean Temperature 56 °F -  
Max Temperature 60 °F 56 °F 68 °F (2014)
Min Temperature 53 °F 53 °F 50 °F (2008)
Degree Days  
Heating Degree Days 8    
Growing Degree Days 6 (Base 50)    
Moisture  
Dew Point 54 °F    
Average Humidity 85    
Maximum Humidity 94    
Minimum Humidity 74    
Precipitation  
Precipitation 0.12 in - - ()
Sea Level Pressure  
Sea Level Pressure 29.81 in    
Wind  
Wind Speed 22 mph ()    
Max Wind Speed 32 mph    
Max Gust Speed 43 mph    
Visibility 7.2 miles    
Events Rain    
Averages and records for this station are not official NWS values.
T = Trace of Precipitation, MM = Missing Value Source: Averaged Metar Reports

Daily Weather History Graph

Daily Weather History Graph

Search for Another Location

Airport:

Trip Planner

Search our weather history database for the weather conditions in past years. The results will help you decide how hot, cold, wet, or windy it might be!

Date:

Astronomy

Oct. 02, 2012 Rise Set
Actual Time 7:27 AM BST 7:00 PM BST
Civil Twilight 6:54 AM BST 7:32 PM BST
Nautical Twilight 6:17 AM BST 8:10 PM BST
Astronomical Twilight 5:39 AM BST 8:48 PM BST
Moon 7:45 PM BST (10/2) 9:59 AM BST (10/2)
Length of Visible Light 12h 37m
Length of Day
11h 33m
Waning Gibbous, 95% of the Moon is Illuminated
Oct 2
Waning Gibbous
Oct 8
Last Quarter
Oct 15
New
Oct 22
First Quarter
Oct 29
Full

Hourly Weather History & Observations

Time (BST) Temp. Dew Point Humidity Pressure Visibility Wind Dir Wind Speed Gust Speed Precip Events Conditions
12:50 AM 56 °F 52 °F 83% 29.93 in 12 mi WSW 15.0 mph - -   Mostly Cloudy
3:50 AM 57 °F 52 °F 76% 29.88 in 16 mi WSW 23.0 mph - -   Mostly Cloudy
6:50 AM 57 °F 53 °F 84% 29.85 in 10 mi WSW 21.9 mph - -   Scattered Clouds
7:20 AM 57.2 °F 53.6 °F 88% 29.83 in 6.2 mi WSW 23.0 mph - N/A   Scattered Clouds
7:50 AM 57.2 °F 53.6 °F 88% 29.83 in 6.2 mi WSW 20.7 mph - N/A   Scattered Clouds
8:20 AM 57.2 °F 53.6 °F 88% 29.83 in 6.2 mi WSW 24.2 mph - N/A   Partly Cloudy
8:50 AM 57.2 °F 53.6 °F 88% 29.83 in 6.2 mi WSW 19.6 mph - N/A   Partly Cloudy
9:20 AM 57.2 °F 53.6 °F 88% 29.83 in 6.2 mi WSW 23.0 mph - N/A   Partly Cloudy
9:50 AM 58 °F 54 °F 81% 29.84 in 13 mi WSW 23.0 mph - -   Scattered Clouds
9:50 AM 59.0 °F 53.6 °F 82% 29.83 in 6.2 mi WSW 24.2 mph - N/A   Partly Cloudy
10:20 AM 59.0 °F 55.4 °F 88% 29.83 in 6.2 mi SW 24.2 mph - N/A   Partly Cloudy
10:50 AM 59.0 °F 55.4 °F 88% 29.83 in 6.2 mi SW 23.0 mph - N/A   Partly Cloudy
11:20 AM 59.0 °F 53.6 °F 82% 29.83 in 6.2 mi SW 25.3 mph - N/A   Partly Cloudy
11:50 AM 59.0 °F 55.4 °F 88% 29.83 in 6.2 mi SW 29.9 mph - N/A   Partly Cloudy
12:20 PM 59.0 °F 55.4 °F 88% 29.80 in 6.2 mi SW 27.6 mph - N/A   Partly Cloudy
12:50 PM 59 °F 55 °F 82% 29.81 in 9 mi SW 27.6 mph - - Rain Rain
12:50 PM 59.0 °F 55.4 °F 88% 29.80 in 6.2 mi SW 26.5 mph - N/A   Partly Cloudy
1:20 PM 59.0 °F 55.4 °F 88% 29.80 in 5.0 mi SW 27.6 mph 39.1 mph N/A Rain Light Rain Showers
1:50 PM 57.2 °F 53.6 °F 88% 29.80 in 5.0 mi SW 31.1 mph 42.6 mph N/A Rain Light Rain Showers
2:20 PM 57.2 °F 55.4 °F 94% 29.80 in 5.0 mi SW 27.6 mph - N/A Rain Light Rain
2:50 PM 57.2 °F 55.4 °F 94% 29.77 in 3.7 mi SW 26.5 mph 38.0 mph N/A Rain Light Rain
3:20 PM 59.0 °F 55.4 °F 88% 29.77 in 6.2 mi SW 32.2 mph - N/A   Mostly Cloudy
3:50 PM 59 °F 55 °F 81% 29.77 in 13 mi WSW 32.2 mph - - Rain Drizzle
3:50 PM 59.0 °F 55.4 °F 88% 29.77 in 6.2 mi SW 27.6 mph - N/A   Mostly Cloudy
4:20 PM 59.0 °F 53.6 °F 82% 29.77 in 6.2 mi WSW 27.6 mph - N/A   Mostly Cloudy
4:50 PM 59.0 °F 53.6 °F 82% 29.77 in 6.2 mi WSW 31.1 mph - N/A   Scattered Clouds
5:20 PM 59.0 °F 53.6 °F 82% 29.74 in 6.2 mi WSW 31.1 mph - N/A   Scattered Clouds
5:50 PM 59.0 °F 53.6 °F 82% 29.74 in 3.7 mi WSW 32.2 mph - N/A Rain Light Rain Showers
6:50 PM 55 °F 53 °F 92% 29.75 in 4 mi West 23.0 mph - - Rain Rain Showers
9:50 PM 57 °F 51 °F 74% 29.75 in 12 mi WSW 21.9 mph - -   Mostly Cloudy